This is the latest recevied weather packets stored in our database for station/object ED1ZAI-14. If no packets are shown the sender has not sent any weather packets the latest 10 day(s).
| Time | Temp. | Humidity | Pressure | Rain* | Wind** | Luminosity | Snow |
|---|---|---|---|---|---|---|---|
| 1788626054 | 24.44° C | 27% | 817.7 hPa | - | - | - | - |
| 1788624254 | 26.11° C | 25% | 817.7 hPa | - | - | - | - |
| 1788622454 | 27.22° C | 24% | 817.6 hPa | - | - | - | - |
| 1788620654 | 24.44° C | 26% | 817.6 hPa | - | - | - | - |
| 1788618854 | 26.67° C | 22% | 817.7 hPa | - | - | - | - |
| 1788617054 | 27.78° C | 20% | 817.7 hPa | - | - | - | - |
| 1788615254 | 29.44° C | 20% | 817.8 hPa | - | - | - | - |
| 1788613454 | 28.33° C | 21% | 818 hPa | - | - | - | - |
| 1788609854 | 27.22° C | 23% | 818.4 hPa | - | - | - | - |
| 1788608053 | 27.22° C | 22% | 818.5 hPa | - | - | - | - |
| 1788604453 | 26.67° C | 25% | 819 hPa | - | - | - | - |
| 1788602653 | 25° C | 27% | 819.2 hPa | - | - | - | - |
| 1788600853 | 23.33° C | 28% | 819 hPa | - | - | - | - |
| 1788599053 | 25.56° C | 26% | 818.7 hPa | - | - | - | - |
| 1788597253 | 22.78° C | 29% | 818.4 hPa | - | - | - | - |
| 1788595453 | 23.89° C | 29% | 818.3 hPa | - | - | - | - |
| 1788593653 | 22.22° C | 30% | 818.2 hPa | - | - | - | - |
| 1788591853 | 21.67° C | 31% | 818.3 hPa | - | - | - | - |
| 1788590054 | 20° C | 32% | 818.1 hPa | - | - | - | - |
| 1788588253 | 18.89° C | 33% | 818 hPa | - | - | - | - |
| 1788586453 | 18.89° C | 33% | 818 hPa | - | - | - | - |
| 1788584653 | 18.89° C | 33% | 818 hPa | - | - | - | - |
| 1788582852 | 19.44° C | 33% | 818.1 hPa | - | - | - | - |
| 1788581052 | 19.44° C | 33% | 818.1 hPa | - | - | - | - |
| 1788579252 | 19.44° C | 34% | 818.2 hPa | - | - | - | - |
* Rain since midnight (hover to see other rain measurements)
** Current wind speed in m/s (hover to see current wind gust speed)